Location: Marcé
(47.5801°N, 0.3280°W)
Time: 23:15:31
(UTC+02:00)

ACS3 Solar Sail - Pass Details

Date: 20 June 2024
Orbit: 992 x 1023 km, 97.4° (Epoch: 12 July)

Event Time Altitude Azimuth Distance (km) Brightness Sun altitude
Exits shadow 01:01:57 - 221° (SW) 3,120 7.1 -17.7°
Reaches altitude 10° 01:03:17 10° 229° (SW) 2,766 6.9 -17.7°
Maximum altitude 01:07:35 19° 274° (W) 2,165 6.8 -17.9°
Drops below altitude 10° 01:11:55 10° 318° (NW) 2,769 8.1 -18.1°
Sets 01:15:14 0° 336° (NNW) 3,721 9.4 -18.2°
